Miscellaneous Local Product
Issued by NWS Hastings, NE

Home | Current Version | Previous Version | Text Only | Print | Product List | Glossary Off
Versions: 1 2 3 4 5 6 7 8 9 10 11 12 13 14 15 16 17 18 19 20 21 22 23 24 25 26 27 28 29 30 31 32 33 34 35 36 37 38 39 40 41 42 43 44 45 46 47 48 49 50

000
AXUS43 KGID 010602
MISGRI

GID CWA HOURLY WEATHER ROUNDUP
NATIONAL WEATHER SERVICE HASTINGS NE
100 AM CDT WED OCT 01 2014

NOTE: "FAIR" INDICATES FEW OR NO CLOUDS BELOW 12,000 FEET WITH NO
SIGNIFICANT WEATHER AND/OR OBSTRUCTIONS TO VISIBILITY.

...SOUTH CENTRAL NEBRASKA...

CITY           SKY/WX    TMP DP  RH WIND       PRES   REMARKS
GRAND ISLAND   CLOUDY    63  62  97 SE8       29.73F FOG
HASTINGS       CLOUDY    63  60  90 SE6       29.72F
KEARNEY        CLOUDY    61  61 100 E7        29.74S VSB 3/4
ORD            FOG       61  60  97 SE8       29.72S VSB 1
YORK           CLOUDY    63  59  88 SE6       29.73R
AURORA         MOCLDY    62  62 100 CALM      29.72F
LEXINGTON      MOCLDY    58  56  95 SE7       29.74S FOG
HEBRON         CLOUDY    64  62  91 NE5       29.72F

...NEBRASKA PANHANDLE...

CITY           SKY/WX    TMP DP  RH WIND       PRES   REMARKS
CHADRON        MOCLDY    50  47  89 SW8       29.75S
ALLIANCE       CLOUDY    50  45  83 SW8       29.77S
SCOTTSBLUFF    CLOUDY    57  45  64 W9        29.79S
SIDNEY         MOCLDY    57  41  55 W9        29.83S

...WESTERN AND NORTH CENTRAL NEBRASKA...

CITY           SKY/WX    TMP DP  RH WIND       PRES   REMARKS
VALENTINE      CLOUDY    50  46  86 SW6       29.71S
AINSWORTH      CLOUDY    61  45  54 SW7       29.71S
ONEILL         MOCLDY    62  62  99 SE10G17   29.73S FOG
BROKEN BOW     MOCLDY    54  51  90 CALM      29.73S
IMPERIAL       MOCLDY    57  46  66 W5        29.78R
NORTH PLATTE   CLOUDY    56  50  80 NW5       29.75S
MCCOOK         CLOUDY    59  53  80 E5        29.75S

...EASTERN NEBRASKA...

CITY           SKY/WX    TMP DP  RH WIND       PRES   REMARKS
NORFOLK        CLOUDY    62  61  96 SE9       29.74F
SO SIOUX CITY  CLOUDY    63  61  93 SE8       29.76S
TEKAMAH        CLOUDY    64  62  93 E7        29.75F
COLUMBUS       CLOUDY    63  61  94 SE6       29.75F
ALBION         CLOUDY    62  60  94 SE8       29.74F FOG
OMAHA EPPLEY   TSTM      65  61  87 SE17      29.77R FOG
MILLARD        RAIN      66  64  93 SE15G21   29.76S
LINCOLN        TSTM      61  59  93 NE3       29.77S VSB 1
NEBRASKA CITY  LGT RAIN  65  65 100 E5        29.75F
BEATRICE       CLOUDY    64  63  96 NE5       29.72F
FALLS CITY     LGT RAIN  65  64  97 E8        29.75F FOG

...NORTHERN KANSAS...

CITY           SKY/WX    TMP DP  RH WIND       PRES   REMARKS
GOODLAND       MOCLDY    54  47  77 W7        29.80S
HILL CITY      CLOUDY    65  63  93 NE3       29.73S FOG
NORTON         CLOUDY    63  61  94 SE6       29.73  FOG
PHILLIPSBURG   CLOUDY    66  66 100 E3        29.72S FOG
SMITH CENTER   CLEAR     61  61 100 E8        29.71S FOG
BELOIT         CLEAR     64  63  94 NE7       29.67F
HAYS           CLEAR     61  55  82 NW5       29.70S
RUSSELL        CLEAR     63  61  93 S5        29.68S
CONCORDIA      MOCLDY    65  64  97 SE6       29.69F
SALINA         TSTM      68  65  90 SE13      29.70F
TOPEKA         CLOUDY    75  62  64 S18G26    29.73F



USA.gov is the U.S. government's official web portal to all federal, state and local government web resources and services.